Regional Weather Roundup
Issued by NWS

Home | Current Version | Previous Version | Text Only | Print | Product List | Glossary Off
Versions: 1 2 3 4 5 6 7 8 9 10 11 12 13 14 15 16 17 18 19 20 21 22 23 24 25 26 27 28 29 30 31 32 33 34 35 36 37 38 39 40 41 42 43 44 45 46 47 48 49 50

000
ASUS43 KLSX 250810
RWRMO

WEATHER SUMMARY FOR MISSOURI
NATIONAL WEATHER SERVICE SPRINGFIELD MO
300 AM CDT FRI MAY 25 2018

NOTE: "FAIR" INDICATES FEW OR NO CLOUDS BELOW 12,000 FEET WITH NO
       SIGNIFICANT WEATHER AND/OR OBSTRUCTIONS TO VISIBILITY.
       CURRENT SKY AND/OR WEATHER CONDITIONS ARE NOT AVAILABLE FOR
       CHILLICOTHE AND FARMINGTON.

MOZ001>031-035>038-043-044-053-054-250900-
...NORTHERN AND WESTERN MISSOURI...

CITY           SKY/WX    TMP DP  RH WIND       PRES   REMARKS
KANSAS CTY INT CLOUDY    68  66  93 SE9       29.95F
KANSAS C DTWN  TSTM      71  64  78 SE9       29.95S
LEE`S SUMMIT   PTCLDY    68  67  96 SW5       29.98S THUNDER
ST JOSEPH      CLOUDY    70  65  84 S6        29.93F
CHILLICOTHE      N/A     69  64  84 CALM      29.96F
KIRKSVILLE     MOCLDY    70  67  90 S7        29.98F

$$
MOZ066>068-077>081-088>096-101>105-250900-
...SOUTHWEST MISSOURI...

CITY           SKY/WX    TMP DP  RH WIND       PRES   REMARKS
SPRINGFIELD    CLOUDY    69  66  90 SE6       30.01F
JOPLIN         CLOUDY    71  66  84 S13G21    29.97F
BRANSON        PTCLDY    64  64 100 CALM      30.03F

$$
MOZ032>034-039>042-045>050-055>058-069>072-250900-
...CENTRAL MISSOURI...

CITY           SKY/WX    TMP DP  RH WIND       PRES   REMARKS
COLUMBIA       CLOUDY    70  67  90 S5        29.99F
JEFFERSON CITY CLOUDY    71  68  90 E3        29.98F
ROLLA          PTCLDY    68  64  87 S7        30.02S
SEDALIA        CLOUDY    69  66  90 SE5       30.00F
WHITEMAN AFB   CLOUDY    67  65  94 SE3       29.93F
WARRENSBURG    CLOUDY    68  63  83 SE6       29.95F
OSAGE BEACH    CLOUDY    68  67  96 CALM      30.01S

$$
MOZ051-052-059>065-250900-
...EAST CENTRAL MISSOURI...

CITY           SKY/WX    TMP DP  RH WIND       PRES   REMARKS
ST LOUIS INTL  PTCLDY    75  62  64 S5        30.00F
SPIRIT OF STL  CLOUDY    69  66  90 CALM      29.99S
ST CHARLES     PTCLDY    68  66  93 CALM      29.98F

$$
MOZ072>076-082>087-097>100-106>115-250900-
...SOUTH CENTRAL AND SOUTHEAST MISSOURI...

CITY           SKY/WX    TMP DP  RH WIND       PRES   REMARKS
CAPE GIRARDEAU FAIR      69  65  86 CALM      29.99F
FARMINGTON     CLOUDY    65  64  97 CALM      30.03S
POPLAR BLUFF   FAIR      73  71  93 CALM      29.99F
WEST PLAINS    CLOUDY    68  66  93 W3        30.03F

$$




USA.gov is the U.S. government's official web portal to all federal, state and local government web resources and services.